| time (UTC) | temp F | wind direction | speed MPH | gust MPH | rain 1hr in | rain 24hr in | rain mn in | humidity % | barometer mb |
| 20260506051330 | 51 | 245 | 4.0 | 8.0 | 0.00 | 0.00 | 0.00 | 93 | 1015.2 |
| 20260506051028 | 51 | 262 | 3.0 | 7.0 | 0.00 | 0.00 | 0.00 | 92 | 1015.2 |
| 20260506050528 | 51 | 161 | 1.0 | 5.0 | 0.00 | 0.00 | 0.00 | 93 | 1015.2 |
| 20260506050430 | 51 | 161 | 1.0 | 4.0 | 0.00 | 0.00 | 0.00 | 92 | 1015.2 |
| 20260506045028 | 51 | 161 | 0.0 | 2.0 | 0.00 | 0.00 | 0.00 | 92 | 1015.0 |
| 20260506044630 | 51 | 159 | 0.0 | 1.0 | 0.00 | 0.00 | 0.00 | 92 | 1014.9 |
| 20260506044529 | 51 | 159 | 0.0 | 0.0 | 0.00 | 0.00 | 0.00 | 92 | 1014.9 |
| 20260506044029 | 52 | 159 | 0.0 | 0.0 | 0.00 | 0.00 | 0.00 | 92 | 1014.8 |
| 20260506043730 | 52 | 159 | 1.0 | 1.0 | 0.00 | 0.00 | 0.00 | 92 | 1014.7 |
| 20260506043529 | 52 | 159 | 1.0 | 2.0 | 0.00 | 0.00 | 0.00 | 92 | 1014.7 |
| 20260506043029 | 52 | 159 | 1.0 | 2.0 | 0.00 | 0.00 | 0.00 | 92 | 1014.6 |
| 20260506042830 | 52 | 159 | 2.0 | 2.0 | 0.00 | 0.00 | 0.00 | 92 | 1014.6 |
| 20260506042529 | 52 | 159 | 2.0 | 2.0 | 0.00 | 0.00 | 0.00 | 92 | 1014.6 |
| 20260506042029 | 52 | 159 | 3.0 | 4.0 | 0.00 | 0.00 | 0.00 | 92 | 1014.7 |
| 20260506041930 | 52 | 159 | 3.0 | 4.0 | 0.00 | 0.00 | 0.00 | 91 | 1014.6 |
| 20260506041529 | 52 | 159 | 2.0 | 4.0 | 0.00 | 0.00 | 0.00 | 92 | 1014.6 |
| 20260506041029 | 52 | 159 | 2.0 | 4.0 | 0.00 | 0.00 | 0.00 | 92 | 1014.7 |
| 20260506040529 | 52 | 159 | 2.0 | 4.0 | 0.00 | 0.00 | 0.00 | 91 | 1014.6 |
| 20260506040130 | 52 | 159 | 2.0 | 4.0 | 0.00 | 0.00 | 0.00 | 91 | 1014.6 |
| 20260506040029 | 52 | 159 | 2.0 | 4.0 | 0.00 | 0.00 | 0.00 | 91 | 1014.5 |
| 20260506035529 | 52 | 159 | 4.0 | 6.0 | 0.00 | 0.00 | 0.00 | 91 | 1014.6 |
| 20260506035029 | 52 | 152 | 7.0 | 9.0 | 0.00 | 0.00 | 0.00 | 90 | 1014.5 |
| 20260506034529 | 51 | 191 | 8.0 | 10.0 | 0.00 | 0.00 | 0.00 | 91 | 1014.3 |
| 20260506034330 | 51 | 198 | 8.0 | 10.0 | 0.00 | 0.00 | 0.00 | 91 | 1014.3 |
| 20260506034029 | 51 | 196 | 9.0 | 10.0 | 0.00 | 0.00 | 0.00 | 91 | 1014.3 |
| 20260506033529 | 52 | 194 | 10.0 | 12.0 | 0.00 | 0.00 | 0.00 | 90 | 1014.2 |
| 20260506033430 | 52 | 198 | 10.0 | 12.0 | 0.00 | 0.00 | 0.00 | 91 | 1014.2 |
| 20260506033029 | 51 | 188 | 11.0 | 13.0 | 0.00 | 0.00 | 0.00 | 91 | 1014.2 |
| 20260506032529 | 51 | 195 | 11.0 | 13.0 | 0.00 | 0.00 | 0.00 | 91 | 1014.0 |
| 20260506032029 | 51 | 204 | 11.0 | 13.0 | 0.00 | 0.00 | 0.00 | 91 | 1014.0 |
| 20260506031630 | 51 | 200 | 11.0 | 13.0 | 0.00 | 0.00 | 0.00 | 91 | 1014.0 |
| 20260506031529 | 51 | 197 | 11.0 | 13.0 | 0.00 | 0.00 | 0.00 | 91 | 1014.0 |
| 20260506031029 | 52 | 198 | 11.0 | 13.0 | 0.00 | 0.00 | 0.00 | 90 | 1013.9 |
| 20260506030730 | 52 | 204 | 10.0 | 13.0 | 0.00 | 0.00 | 0.00 | 90 | 1013.9 |
| 20260506030529 | 52 | 190 | 10.0 | 12.0 | 0.00 | 0.00 | 0.00 | 90 | 1013.9 |
| 20260506030029 | 52 | 199 | 11.0 | 13.0 | 0.00 | 0.00 | 0.00 | 89 | 1013.8 |
| 20260506025830 | 52 | 200 | 11.0 | 14.0 | 0.00 | 0.00 | 0.00 | 89 | 1013.9 |
| 20260506025529 | 52 | 198 | 12.0 | 14.0 | 0.00 | 0.00 | 0.00 | 89 | 1013.9 |
| 20260506025029 | 52 | 200 | 12.0 | 15.0 | 0.00 | 0.00 | 0.00 | 89 | 1013.9 |
| 20260506024930 | 53 | 206 | 12.0 | 15.0 | 0.00 | 0.00 | 0.00 | 89 | 1013.9 |
| 20260506024529 | 53 | 207 | 12.0 | 14.0 | 0.00 | 0.00 | 0.00 | 88 | 1013.8 |
| 20260506024029 | 53 | 204 | 12.0 | 15.0 | 0.00 | 0.00 | 0.00 | 89 | 1013.8 |
| 20260506023529 | 53 | 208 | 12.0 | 15.0 | 0.00 | 0.00 | 0.00 | 88 | 1013.7 |
| 20260506023130 | 53 | 206 | 12.0 | 15.0 | 0.00 | 0.00 | 0.00 | 88 | 1013.7 |
| 20260506023029 | 53 | 195 | 12.0 | 15.0 | 0.00 | 0.00 | 0.00 | 88 | 1013.7 |
| 20260506022529 | 53 | 200 | 12.0 | 16.0 | 0.00 | 0.00 | 0.00 | 87 | 1013.6 |
| 20260506022231 | 54 | 202 | 12.0 | 17.0 | 0.00 | 0.00 | 0.00 | 87 | 1013.6 |
| 20260506022029 | 53 | 217 | 13.0 | 17.0 | 0.00 | 0.00 | 0.00 | 87 | 1013.6 |
| 20260506021529 | 54 | 194 | 12.0 | 16.0 | 0.00 | 0.00 | 0.00 | 87 | 1013.7 |
| 20260506021331 | 54 | 207 | 12.0 | 16.0 | 0.00 | 0.00 | 0.00 | 87 | 1013.6 |
| 20260506021029 | 54 | 207 | 12.0 | 16.0 | 0.00 | 0.00 | 0.00 | 87 | 1013.7 |
| 20260506020529 | 54 | 219 | 12.0 | 14.0 | 0.00 | 0.00 | 0.00 | 86 | 1013.7 |
| 20260506020430 | 54 | 205 | 12.0 | 15.0 | 0.00 | 0.00 | 0.00 | 86 | 1013.6 |
| 20260506020029 | 54 | 204 | 12.0 | 16.0 | 0.00 | 0.00 | 0.00 | 86 | 1013.6 |
| 20260506015529 | 54 | 211 | 13.0 | 17.0 | 0.00 | 0.00 | 0.00 | 86 | 1013.5 |
| 20260506015029 | 54 | 207 | 14.0 | 17.0 | 0.00 | 0.00 | 0.00 | 86 | 1013.6 |
| 20260506014630 | 54 | 200 | 14.0 | 18.0 | 0.00 | 0.00 | 0.00 | 86 | 1013.5 |
| 20260506014529 | 54 | 205 | 14.0 | 18.0 | 0.00 | 0.00 | 0.00 | 86 | 1013.4 |
| 20260506014029 | 54 | 196 | 14.0 | 19.0 | 0.00 | 0.00 | 0.00 | 86 | 1013.4 |
| 20260506013730 | 54 | 211 | 14.0 | 18.0 | 0.00 | 0.00 | 0.00 | 86 | 1013.4 |
| 20260506013529 | 54 | 213 | 14.0 | 18.0 | 0.00 | 0.00 | 0.00 | 87 | 1013.4 |
| 20260506013029 | 54 | 203 | 15.0 | 18.0 | 0.00 | 0.00 | 0.00 | 86 | 1013.4 |
| 20260506012830 | 55 | 229 | 15.0 | 19.0 | 0.00 | 0.00 | 0.00 | 86 | 1013.4 |
| 20260506012529 | 55 | 209 | 15.0 | 19.0 | 0.00 | 0.00 | 0.00 | 86 | 1013.3 |
| 20260506012029 | 55 | 207 | 14.0 | 21.0 | 0.00 | 0.00 | 0.00 | 86 | 1013.3 |
| 20260506011930 | 55 | 213 | 14.0 | 18.0 | 0.00 | 0.00 | 0.00 | 86 | 1013.4 |
| 20260506011529 | 55 | 214 | 13.0 | 17.0 | 0.00 | 0.00 | 0.00 | 86 | 1013.5 |
| 20260506011029 | 55 | 207 | 13.0 | 19.0 | 0.00 | 0.00 | 0.00 | 86 | 1013.4 |
| 20260506010529 | 55 | 203 | 13.0 | 18.0 | 0.00 | 0.00 | 0.00 | 86 | 1013.4 |
| 20260506010130 | 55 | 213 | 12.0 | 18.0 | 0.00 | 0.00 | 0.00 | 85 | 1013.4 |
| 20260506010029 | 55 | 223 | 12.0 | 18.0 | 0.00 | 0.00 | 0.00 | 85 | 1013.3 |
| 20260506005529 | 55 | 216 | 13.0 | 18.0 | 0.00 | 0.00 | 0.00 | 86 | 1013.4 |
| 20260506005029 | 55 | 222 | 13.0 | 17.0 | 0.00 | 0.00 | 0.00 | 86 | 1013.3 |
| 20260506004529 | 55 | 231 | 13.0 | 20.0 | 0.00 | 0.00 | 0.00 | 86 | 1013.2 |
| 20260506004330 | 55 | 225 | 13.0 | 20.0 | 0.00 | 0.00 | 0.00 | 86 | 1013.2 |
| 20260506004029 | 55 | 239 | 14.0 | 18.0 | 0.00 | 0.00 | 0.00 | 85 | 1013.2 |
| 20260506003529 | 55 | 209 | 13.0 | 17.0 | 0.00 | 0.00 | 0.00 | 85 | 1013.2 |
| 20260506003430 | 55 | 213 | 13.0 | 17.0 | 0.00 | 0.00 | 0.00 | 85 | 1013.2 |
| 20260506003029 | 55 | 205 | 13.0 | 18.0 | 0.00 | 0.00 | 0.00 | 86 | 1013.0 |
| 20260506002529 | 55 | 208 | 13.0 | 18.0 | 0.00 | 0.00 | 0.00 | 85 | 1013.2 |
| 20260506002029 | 55 | 223 | 13.0 | 18.0 | 0.00 | 0.00 | 0.00 | 85 | 1013.1 |
| 20260506001630 | 56 | 218 | 13.0 | 18.0 | 0.00 | 0.00 | 0.00 | 84 | 1013.1 |
| 20260506001533 | 56 | 211 | 13.0 | 18.0 | 0.00 | 0.00 | 0.00 | 85 | 1013.2 |
| 20260506001029 | 56 | 207 | 15.0 | 19.0 | 0.00 | 0.00 | 0.00 | 84 | 1013.1 |
| 20260506000730 | 55 | 228 | 15.0 | 20.0 | 0.00 | 0.00 | 0.00 | 85 | 1013.1 |
| 20260506000529 | 55 | 194 | 15.0 | 20.0 | 0.00 | 0.00 | 0.00 | 85 | 1013.0 |
| 20260506000029 | 55 | 202 | 15.0 | 20.0 | 0.00 | 0.00 | 0.00 | 84 | 1013.0 |
| 20260505235830 | 56 | 203 | 15.0 | 20.0 | 0.00 | 0.00 | 0.00 | 84 | 1012.9 |
| 20260505235529 | 56 | 217 | 14.0 | 19.0 | 0.00 | 0.00 | 0.00 | 85 | 1012.8 |
| 20260505235029 | 56 | 218 | 14.0 | 21.0 | 0.00 | 0.00 | 0.00 | 84 | 1013.0 |
| 20260505234931 | 56 | 209 | 13.0 | 21.0 | 0.00 | 0.00 | 0.00 | 84 | 1013.0 |
| 20260505234529 | 56 | 200 | 13.0 | 19.0 | 0.00 | 0.00 | 0.00 | 84 | 1013.0 |
| 20260505234029 | 56 | 199 | 13.0 | 18.0 | 0.00 | 0.00 | 0.00 | 83 | 1013.1 |
| 20260505233529 | 56 | 211 | 14.0 | 18.0 | 0.00 | 0.00 | 0.00 | 84 | 1013.1 |
| 20260505233130 | 56 | 213 | 14.0 | 20.0 | 0.00 | 0.00 | 0.00 | 83 | 1013.1 |
| 20260505233029 | 56 | 207 | 14.0 | 20.0 | 0.00 | 0.00 | 0.00 | 84 | 1013.1 |
| 20260505232529 | 56 | 224 | 13.0 | 18.0 | 0.00 | 0.00 | 0.00 | 83 | 1013.1 |
| 20260505232230 | 56 | 204 | 13.0 | 18.0 | 0.00 | 0.00 | 0.00 | 83 | 1013.1 |
| 20260505232029 | 56 | 209 | 13.0 | 18.0 | 0.00 | 0.00 | 0.00 | 84 | 1013.1 |
| 20260505231529 | 56 | 213 | 13.0 | 19.0 | 0.00 | 0.00 | 0.00 | 83 | 1013.3 |
| 20260505231330 | 56 | 207 | 13.0 | 20.0 | 0.00 | 0.00 | 0.00 | 84 | 1013.2 |
| 20260505231029 | 56 | 212 | 12.0 | 20.0 | 0.00 | 0.00 | 0.00 | 84 | 1013.2 |
| 20260505230529 | 56 | 209 | 13.0 | 18.0 | 0.00 | 0.00 | 0.00 | 85 | 1013.2 |
| 20260505230430 | 56 | 215 | 13.0 | 20.0 | 0.00 | 0.00 | 0.00 | 84 | 1013.2 |
| 20260505230029 | 56 | 203 | 13.0 | 20.0 | 0.00 | 0.00 | 0.00 | 84 | 1013.2 |
| 20260505225529 | 56 | 228 | 13.0 | 18.0 | 0.00 | 0.00 | 0.00 | 85 | 1013.2 |
| 20260505225029 | 56 | 214 | 14.0 | 19.0 | 0.00 | 0.00 | 0.00 | 85 | 1013.2 |
| 20260505224630 | 56 | 214 | 14.0 | 18.0 | 0.00 | 0.00 | 0.00 | 84 | 1013.2 |
| 20260505224529 | 56 | 208 | 15.0 | 18.0 | 0.00 | 0.00 | 0.00 | 83 | 1013.2 |
| 20260505224029 | 56 | 238 | 15.0 | 20.0 | 0.00 | 0.00 | 0.00 | 80 | 1013.2 |
| 20260505223730 | 56 | 211 | 15.0 | 20.0 | 0.00 | 0.00 | 0.00 | 84 | 1013.1 |
| 20260505223529 | 55 | 213 | 15.0 | 20.0 | 0.00 | 0.00 | 0.00 | 84 | 1013.1 |
| 20260505223029 | 56 | 216 | 15.0 | 21.0 | 0.00 | 0.00 | 0.00 | 84 | 1013.1 |
| 20260505222830 | 56 | 207 | 15.0 | 21.0 | 0.00 | 0.00 | 0.00 | 83 | 1013.1 |
| 20260505222529 | 56 | 213 | 14.0 | 18.0 | 0.00 | 0.00 | 0.00 | 83 | 1013.2 |
| 20260505222029 | 56 | 204 | 14.0 | 24.0 | 0.00 | 0.00 | 0.00 | 81 | 1013.2 |
| 20260505221930 | 56 | 208 | 14.0 | 24.0 | 0.00 | 0.00 | 0.00 | 80 | 1013.1 |
| 20260505221529 | 56 | 219 | 14.0 | 19.0 | 0.00 | 0.00 | 0.00 | 82 | 1013.2 |
| 20260505221029 | 56 | 220 | 14.0 | 20.0 | 0.00 | 0.00 | 0.00 | 81 | 1013.1 |
| 20260505220529 | 56 | 207 | 12.0 | 17.0 | 0.00 | 0.00 | 0.00 | 81 | 1013.2 |
| 20260505220130 | 56 | 204 | 11.0 | 16.0 | 0.00 | 0.00 | 0.00 | 82 | 1013.2 |
| 20260505220029 | 56 | 214 | 12.0 | 16.0 | 0.00 | 0.00 | 0.00 | 81 | 1013.2 |
| 20260505215529 | 56 | 209 | 12.0 | 16.0 | 0.00 | 0.00 | 0.00 | 82 | 1013.3 |
| 20260505215231 | 56 | 225 | 12.0 | 18.0 | 0.00 | 0.00 | 0.00 | 80 | 1013.4 |
| 20260505215029 | 56 | 202 | 11.0 | 18.0 | 0.00 | 0.00 | 0.00 | 82 | 1013.2 |
| 20260505214529 | 56 | 209 | 11.0 | 16.0 | 0.00 | 0.00 | 0.00 | 82 | 1013.2 |
| 20260505214330 | 56 | 215 | 11.0 | 14.0 | 0.00 | 0.00 | 0.00 | 83 | 1013.2 |
| 20260505214029 | 56 | 219 | 12.0 | 16.0 | 0.00 | 0.00 | 0.00 | 83 | 1013.1 |
| 20260505213529 | 55 | 209 | 11.0 | 16.0 | 0.00 | 0.00 | 0.00 | 84 | 1013.3 |
| 20260505213430 | 55 | 209 | 11.0 | 16.0 | 0.00 | 0.00 | 0.00 | 84 | 1013.2 |
| 20260505213029 | 55 | 215 | 10.0 | 15.0 | 0.00 | 0.00 | 0.00 | 84 | 1013.3 |
| 20260505212529 | 56 | 215 | 10.0 | 14.0 | 0.00 | 0.00 | 0.00 | 83 | 1013.3 |
| 20260505212029 | 55 | 195 | 10.0 | 14.0 | 0.00 | 0.00 | 0.00 | 84 | 1013.3 |
| 20260505211630 | 55 | 218 | 11.0 | 14.0 | 0.00 | 0.00 | 0.00 | 85 | 1013.3 |
| 20260505211529 | 55 | 228 | 11.0 | 14.0 | 0.00 | 0.00 | 0.00 | 84 | 1013.3 |
| 20260505211029 | 55 | 188 | 11.0 | 15.0 | 0.00 | 0.00 | 0.00 | 84 | 1013.3 |
| 20260505210730 | 55 | 209 | 11.0 | 14.0 | 0.00 | 0.00 | 0.00 | 87 | 1013.4 |
| 20260505210529 | 54 | 210 | 11.0 | 16.0 | 0.00 | 0.00 | 0.00 | 86 | 1013.3 |
| 20260505210029 | 54 | 215 | 11.0 | 16.0 | 0.00 | 0.00 | 0.00 | 86 | 1013.3 |
| 20260505205830 | 54 | 209 | 12.0 | 17.0 | 0.00 | 0.00 | 0.00 | 85 | 1013.3 |
| 20260505205529 | 54 | 203 | 12.0 | 17.0 | 0.00 | 0.00 | 0.00 | 87 | 1013.3 |
| 20260505205029 | 54 | 207 | 12.0 | 16.0 | 0.00 | 0.00 | 0.00 | 86 | 1013.2 |
| 20260505204930 | 54 | 211 | 11.0 | 16.0 | 0.00 | 0.00 | 0.00 | 86 | 1013.3 |
| 20260505204529 | 54 | 198 | 10.0 | 15.0 | 0.00 | 0.00 | 0.00 | 88 | 1013.3 |
| 20260505204029 | 54 | 204 | 10.0 | 13.0 | 0.00 | 0.00 | 0.00 | 88 | 1013.3 |
| 20260505203529 | 54 | 209 | 9.0 | 14.0 | 0.00 | 0.00 | 0.00 | 88 | 1013.3 |
| 20260505203130 | 53 | 204 | 10.0 | 14.0 | 0.00 | 0.00 | 0.00 | 88 | 1013.2 |
| 20260505203029 | 53 | 207 | 10.0 | 14.0 | 0.00 | 0.00 | 0.00 | 88 | 1013.3 |
| 20260505202529 | 53 | 192 | 11.0 | 15.0 | 0.00 | 0.00 | 0.00 | 89 | 1013.2 |
| 20260505202230 | 53 | 198 | 11.0 | 15.0 | 0.00 | 0.00 | 0.00 | 88 | 1013.1 |
| 20260505202029 | 53 | 212 | 10.0 | 14.0 | 0.00 | 0.00 | 0.00 | 88 | 1013.2 |
| 20260505201529 | 53 | 200 | 10.0 | 13.0 | 0.00 | 0.00 | 0.00 | 87 | 1013.3 |
| 20260505201331 | 53 | 225 | 10.0 | 16.0 | 0.00 | 0.00 | 0.00 | 89 | 1013.2 |
| 20260505201029 | 53 | 219 | 9.0 | 16.0 | 0.00 | 0.00 | 0.00 | 88 | 1013.2 |
| 20260505200529 | 53 | 205 | 8.0 | 13.0 | 0.00 | 0.00 | 0.00 | 88 | 1013.2 |
| 20260505200430 | 53 | 216 | 7.0 | 13.0 | 0.00 | 0.00 | 0.00 | 90 | 1013.2 |
| 20260505200029 | 53 | 229 | 8.0 | 10.0 | 0.00 | 0.00 | 0.00 | 88 | 1013.2 |
| 20260505195529 | 53 | 207 | 6.0 | 14.0 | 0.00 | 0.00 | 0.00 | 89 | 1013.2 |
| 20260505195029 | 53 | 239 | 6.0 | 9.0 | 0.00 | 0.00 | 0.00 | 90 | 1013.2 |
| 20260505194630 | 52 | 232 | 7.0 | 10.0 | 0.00 | 0.00 | 0.00 | 90 | 1013.2 |
| 20260505194529 | 52 | 229 | 8.0 | 11.0 | 0.00 | 0.00 | 0.00 | 90 | 1013.2 |
| 20260505194029 | 52 | 232 | 7.0 | 10.0 | 0.00 | 0.00 | 0.00 | 88 | 1013.2 |
| 20260505193730 | 52 | 233 | 6.0 | 10.0 | 0.00 | 0.00 | 0.00 | 88 | 1013.2 |
| 20260505193529 | 52 | 221 | 6.0 | 10.0 | 0.00 | 0.00 | 0.00 | 88 | 1013.1 |
| 20260505193029 | 52 | 259 | 7.0 | 9.0 | 0.00 | 0.00 | 0.00 | 89 | 1013.2 |
| 20260505192830 | 52 | 228 | 7.0 | 9.0 | 0.00 | 0.00 | 0.00 | 90 | 1013.2 |
| 20260505192529 | 52 | 260 | 7.0 | 11.0 | 0.00 | 0.00 | 0.00 | 90 | 1013.2 |
| 20260505192029 | 51 | 229 | 7.0 | 12.0 | 0.00 | 0.00 | 0.00 | 91 | 1013.1 |
| 20260505191930 | 51 | 246 | 7.0 | 12.0 | 0.00 | 0.00 | 0.00 | 91 | 1013.1 |
| 20260505191529 | 51 | 213 | 6.0 | 10.0 | 0.00 | 0.00 | 0.00 | 92 | 1013.0 |
| 20260505191029 | 51 | 238 | 7.0 | 10.0 | 0.00 | 0.00 | 0.00 | 91 | 1013.0 |
| 20260505190529 | 51 | 262 | 6.0 | 10.0 | 0.00 | 0.00 | 0.00 | 91 | 1013.0 |
| 20260505190130 | 52 | 240 | 6.0 | 10.0 | 0.00 | 0.00 | 0.00 | 89 | 1013.1 |
| 20260505190029 | 52 | 250 | 5.0 | 9.0 | 0.00 | 0.00 | 0.00 | 88 | 1013.0 |
| 20260505185529 | 53 | 265 | 5.0 | 8.0 | 0.00 | 0.00 | 0.00 | 87 | 1013.0 |
| 20260505185231 | 53 | 263 | 5.0 | 8.0 | 0.00 | 0.00 | 0.00 | 88 | 1013.0 |
| 20260505185029 | 52 | 299 | 5.0 | 9.0 | 0.00 | 0.00 | 0.00 | 88 | 1013.0 |
| 20260505184529 | 52 | 283 | 4.0 | 9.0 | 0.00 | 0.00 | 0.00 | 88 | 1013.0 |
| 20260505184330 | 52 | 276 | 4.0 | 7.0 | 0.00 | 0.00 | 0.00 | 87 | 1012.9 |
| 20260505184029 | 52 | 289 | 3.0 | 7.0 | 0.00 | 0.00 | 0.00 | 87 | 1013.1 |
| 20260505183529 | 52 | 311 | 3.0 | 5.0 | 0.00 | 0.00 | 0.00 | 85 | 1013.0 |
| 20260505183430 | 52 | 310 | 3.0 | 5.0 | 0.00 | 0.00 | 0.00 | 86 | 1013.0 |
| 20260505183029 | 52 | 305 | 2.0 | 5.0 | 0.00 | 0.00 | 0.00 | 85 | 1013.1 |
| 20260505182529 | 53 | 312 | 2.0 | 4.0 | 0.00 | 0.00 | 0.00 | 85 | 1013.0 |
| 20260505182029 | 54 | 319 | 2.0 | 4.0 | 0.00 | 0.00 | 0.00 | 85 | 1013.0 |
| 20260505181630 | 54 | 321 | 2.0 | 4.0 | 0.00 | 0.00 | 0.00 | 86 | 1013.0 |
| 20260505181529 | 54 | 5 | 2.0 | 4.0 | 0.00 | 0.00 | 0.00 | 86 | 1012.9 |
| 20260505181029 | 54 | 46 | 2.0 | 6.0 | 0.00 | 0.00 | 0.00 | 89 | 1012.8 |
| 20260505180730 | 54 | 144 | 2.0 | 6.0 | 0.00 | 0.00 | 0.00 | 89 | 1012.7 |
| 20260505180529 | 54 | 163 | 2.0 | 4.0 | 0.00 | 0.00 | 0.00 | 90 | 1012.7 |
| 20260505180029 | 54 | 311 | 2.0 | 5.0 | 0.00 | 0.00 | 0.00 | 92 | 1012.7 |
| 20260505175830 | 53 | 17 | 2.0 | 5.0 | 0.00 | 0.00 | 0.00 | 93 | 1012.8 |
| 20260505175529 | 53 | 130 | 2.0 | 4.0 | 0.00 | 0.00 | 0.00 | 90 | 1012.8 |
| 20260505175029 | 53 | 74 | 3.0 | 5.0 | 0.00 | 0.00 | 0.00 | 91 | 1012.8 |
| 20260505174930 | 53 | 48 | 3.0 | 5.0 | 0.00 | 0.00 | 0.00 | 92 | 1012.7 |
| 20260505174529 | 53 | 135 | 3.0 | 5.0 | 0.00 | 0.00 | 0.00 | 93 | 1012.7 |
| 20260505174029 | 53 | 73 | 3.0 | 6.0 | 0.00 | 0.00 | 0.00 | 91 | 1012.7 |
| 20260505173529 | 52 | 65 | 2.0 | 5.0 | 0.00 | 0.00 | 0.00 | 97 | 1012.7 |
| 20260505173131 | 51 | 71 | 2.0 | 4.0 | 0.00 | 0.00 | 0.00 | 98 | 1012.7 |
| 20260505173029 | 51 | 43 | 2.0 | 4.0 | 0.00 | 0.00 | 0.00 | 98 | 1012.7 |
| 20260505172529 | 50 | 25 | 2.0 | 4.0 | 0.00 | 0.00 | 0.00 | 97 | 1012.6 |
| 20260505172231 | 50 | 297 | 2.0 | 5.0 | 0.00 | 0.00 | 0.00 | 98 | 1012.7 |
| 20260505172029 | 50 | 223 | 2.0 | 5.0 | 0.00 | 0.00 | 0.00 | 99 | 1012.7 |
| 20260505171529 | 50 | 0 | 1.0 | 4.0 | 0.00 | 0.00 | 0.00 | 99 | 1012.7 |
| 20260505171331 | 50 | 315 | 2.0 | 4.0 | 0.00 | 0.00 | 0.00 | 99 | 1012.7 |
| 20260505171029 | 50 | 321 | 1.0 | 3.0 | 0.00 | 0.00 | 0.00 | 99 | 1012.7 |
| 20260505170530 | 50 | 42 | 2.0 | 3.0 | 0.00 | 0.00 | 0.00 | 100 | 1012.7 |
| 20260505170431 | 49 | 39 | 2.0 | 3.0 | 0.00 | 0.00 | 0.00 | 100 | 1012.7 |
| 20260505170029 | 49 | 39 | 2.0 | 5.0 | 0.00 | 0.00 | 0.00 | 100 | 1012.6 |
| 20260505165530 | 49 | 55 | 2.0 | 5.0 | 0.00 | 0.00 | 0.00 | 100 | 1012.6 |
| 20260505165029 | 49 | 5 | 1.0 | 4.0 | 0.00 | 0.00 | 0.00 | 100 | 1012.6 |
| 20260505164630 | 48 | 11 | 1.0 | 4.0 | 0.00 | 0.00 | 0.00 | 100 | 1012.6 |
| 20260505164530 | 48 | 11 | 1.0 | 4.0 | 0.00 | 0.00 | 0.00 | 100 | 1012.6 |
| 20260505164030 | 47 | 345 | 1.0 | 2.0 | 0.00 | 0.00 | 0.00 | 100 | 1012.6 |
| 20260505163731 | 47 | 345 | 1.0 | 2.0 | 0.00 | 0.00 | 0.00 | 100 | 1012.5 |
| 20260505163529 | 47 | 345 | 1.0 | 3.0 | 0.00 | 0.00 | 0.00 | 100 | 1012.5 |
| 20260505163030 | 47 | 202 | 1.0 | 3.0 | 0.00 | 0.00 | 0.00 | 100 | 1012.6 |
| 20260505162831 | 47 | 197 | 1.0 | 3.0 | 0.00 | 0.00 | 0.00 | 100 | 1012.4 |
| 20260505162530 | 47 | 199 | 2.0 | 3.0 | 0.00 | 0.00 | 0.00 | 100 | 1012.5 |
| 20260505162030 | 46 | 317 | 3.0 | 4.0 | 0.00 | 0.00 | 0.00 | 100 | 1012.5 |
| 20260505161931 | 46 | 355 | 3.0 | 4.0 | 0.00 | 0.00 | 0.00 | 100 | 1012.5 |
| 20260505161530 | 46 | 276 | 2.0 | 7.0 | 0.00 | 0.00 | 0.00 | 100 | 1012.4 |
| 20260505161030 | 46 | 284 | 2.0 | 4.0 | 0.00 | 0.00 | 0.00 | 100 | 1012.4 |
| 20260505160530 | 47 | 336 | 1.0 | 3.0 | 0.00 | 0.00 | 0.00 | 100 | 1012.4 |
| 20260505160131 | 47 | 306 | 1.0 | 2.0 | 0.00 | 0.00 | 0.00 | 100 | 1012.4 |
| 20260505153030 | 46 | 322 | 1.0 | 2.0 | 0.00 | 0.00 | 0.00 | 100 | 1012.5 |
| 20260505152530 | 46 | 322 | 1.0 | 2.0 | 0.00 | 0.00 | 0.00 | 100 | 1012.4 |
| 20260505152030 | 47 | 322 | 1.0 | 3.0 | 0.00 | 0.00 | 0.00 | 100 | 1012.4 |
| 20260505151631 | 47 | 63 | 0.0 | 2.0 | 0.00 | 0.00 | 0.00 | 100 | 1012.4 |
| 20260505151530 | 47 | 63 | 0.0 | 2.0 | 0.00 | 0.00 | 0.00 | 100 | 1012.3 |
| 20260505151030 | 47 | 63 | 0.0 | 1.0 | 0.00 | 0.00 | 0.00 | 100 | 1012.3 |
| 20260505150731 | 47 | 63 | 0.0 | 1.0 | 0.00 | 0.00 | 0.00 | 100 | 1012.3 |
| 20260505150530 | 47 | 63 | 0.0 | 1.0 | 0.00 | 0.00 | 0.00 | 100 | 1012.3 |
| 20260505140530 | 45 | 63 | 2.0 | 3.0 | 0.00 | 0.00 | 0.00 | 100 | 1011.8 |
| 20260505140431 | 45 | 63 | 2.0 | 3.0 | 0.00 | 0.00 | 0.00 | 100 | 1011.8 |
| 20260505130131 | 46 | 63 | 2.0 | 3.0 | 0.00 | 0.00 | 0.00 | 100 | 1011.3 |
| 20260505125030 | 46 | 26 | 2.0 | 3.0 | 0.00 | 0.00 | 0.00 | 100 | 1011.2 |
| 20260505124530 | 46 | 26 | 1.0 | 4.0 | 0.00 | 0.00 | 0.00 | 100 | 1011.2 |
| 20260505124331 | 46 | 26 | 1.0 | 4.0 | 0.00 | 0.00 | 0.00 | 100 | 1011.2 |
| 20260505124030 | 46 | 26 | 0.0 | 2.0 | 0.00 | 0.00 | 0.00 | 100 | 1011.1 |
| 20260505123530 | 46 | 26 | 1.0 | 2.0 | 0.00 | 0.00 | 0.00 | 100 | 1011.2 |
| 20260505123431 | 46 | 26 | 1.0 | 2.0 | 0.00 | 0.00 | 0.00 | 100 | 1011.1 |
| 20260505123030 | 46 | 26 | 1.0 | 2.0 | 0.00 | 0.00 | 0.00 | 100 | 1011.1 |
| 20260505122530 | 46 | 26 | 0.0 | 1.0 | 0.00 | 0.00 | 0.00 | 100 | 1011.1 |
| 20260505122030 | 46 | 26 | 1.0 | 2.0 | 0.00 | 0.00 | 0.00 | 100 | 1011.1 |
| 20260505121631 | 46 | 26 | 0.0 | 2.0 | 0.00 | 0.00 | 0.00 | 100 | 1011.1 |
| 20260505121530 | 46 | 26 | 0.0 | 2.0 | 0.00 | 0.00 | 0.00 | 100 | 1011.1 |
| 20260505121030 | 46 | 26 | 0.0 | 2.0 | 0.00 | 0.00 | 0.00 | 100 | 1011.0 |
| 20260505120731 | 46 | 26 | 0.0 | 1.0 | 0.00 | 0.00 | 0.00 | 100 | 1011.0 |
| 20260505120530 | 46 | 26 | 0.0 | 1.0 | 0.00 | 0.00 | 0.00 | 100 | 1011.1 |
| 20260505120030 | 46 | 26 | 1.0 | 2.0 | 0.00 | 0.00 | 0.00 | 100 | 1011.0 |
| 20260505115831 | 46 | 26 | 1.0 | 2.0 | 0.00 | 0.00 | 0.00 | 100 | 1011.0 |
| 20260505115530 | 46 | 26 | 1.0 | 3.0 | 0.00 | 0.00 | 0.00 | 100 | 1011.0 |
| 20260505115030 | 47 | 26 | 2.0 | 3.0 | 0.00 | 0.00 | 0.00 | 100 | 1011.0 |
| 20260505114931 | 47 | 26 | 2.0 | 2.0 | 0.00 | 0.00 | 0.00 | 100 | 1011.1 |
| 20260505114530 | 47 | 26 | 3.0 | 5.0 | 0.00 | 0.00 | 0.00 | 100 | 1010.9 |
| 20260505114030 | 46 | 26 | 2.0 | 5.0 | 0.00 | 0.00 | 0.00 | 100 | 1011.0 |
| 20260505113530 | 46 | 23 | 3.0 | 4.0 | 0.00 | 0.00 | 0.00 | 100 | 1010.9 |
| 20260505113131 | 46 | 0 | 3.0 | 5.0 | 0.00 | 0.00 | 0.00 | 100 | 1011.0 |
| 20260505113030 | 47 | 0 | 2.0 | 5.0 | 0.00 | 0.00 | 0.00 | 100 | 1011.0 |
| 20260505112530 | 47 | 342 | 3.0 | 3.0 | 0.00 | 0.00 | 0.00 | 100 | 1011.1 |
| 20260505112231 | 47 | 342 | 3.0 | 5.0 | 0.00 | 0.00 | 0.00 | 100 | 1011.0 |
| 20260505112030 | 47 | 342 | 4.0 | 5.0 | 0.00 | 0.00 | 0.00 | 100 | 1011.0 |
| 20260505111530 | 47 | 344 | 4.0 | 5.0 | 0.00 | 0.00 | 0.00 | 100 | 1011.1 |
| 20260505111331 | 47 | 355 | 4.0 | 6.0 | 0.00 | 0.00 | 0.00 | 100 | 1010.9 |
| 20260505111030 | 47 | 344 | 3.0 | 6.0 | 0.00 | 0.00 | 0.00 | 100 | 1011.0 |
| 20260505110530 | 47 | 325 | 4.0 | 4.0 | 0.00 | 0.00 | 0.00 | 100 | 1011.0 |
| 20260505110431 | 47 | 325 | 4.0 | 4.0 | 0.00 | 0.00 | 0.00 | 100 | 1011.0 |
| 20260505102030 | 47 | 22 | 1.0 | 2.0 | 0.00 | 0.00 | 0.00 | 100 | 1010.7 |
| 20260505101931 | 47 | 22 | 1.0 | 2.0 | 0.00 | 0.00 | 0.00 | 100 | 1010.6 |
| 20260505101530 | 47 | 22 | 1.0 | 2.0 | 0.00 | 0.00 | 0.00 | 100 | 1010.6 |
| 20260505101030 | 47 | 22 | 0.0 | 2.0 | 0.00 | 0.00 | 0.00 | 100 | 1010.5 |
| 20260505100530 | 48 | 22 | 0.0 | 2.0 | 0.00 | 0.00 | 0.00 | 100 | 1010.5 |
| 20260505100131 | 48 | 22 | 1.0 | 1.0 | 0.00 | 0.00 | 0.00 | 100 | 1010.6 |
| 20260505100030 | 48 | 22 | 1.0 | 0.0 | 0.00 | 0.00 | 0.00 | 100 | 1010.5 |
| 20260505095530 | 48 | 22 | 1.0 | 2.0 | 0.00 | 0.00 | 0.00 | 100 | 1010.6 |
| 20260505095231 | 48 | 22 | 1.0 | 3.0 | 0.00 | 0.00 | 0.00 | 99 | 1010.5 |
| 20260505095030 | 48 | 22 | 1.0 | 3.0 | 0.00 | 0.00 | 0.00 | 100 | 1010.5 |
| 20260505094530 | 48 | 44 | 1.0 | 2.0 | 0.00 | 0.00 | 0.00 | 99 | 1010.5 |
| 20260505094331 | 48 | 44 | 1.0 | 2.0 | 0.00 | 0.00 | 0.00 | 99 | 1010.5 |
| 20260505094030 | 48 | 44 | 2.0 | 1.0 | 0.00 | 0.00 | 0.00 | 99 | 1010.5 |
| 20260505093530 | 48 | 44 | 2.0 | 4.0 | 0.00 | 0.00 | 0.00 | 98 | 1010.5 |
| 20260505093431 | 48 | 44 | 1.0 | 4.0 | 0.00 | 0.00 | 0.00 | 99 | 1010.5 |
| 20260505093030 | 48 | 11 | 1.0 | 2.0 | 0.00 | 0.00 | 0.00 | 99 | 1010.5 |
| 20260505092530 | 48 | 11 | 1.0 | 3.0 | 0.00 | 0.00 | 0.00 | 99 | 1010.5 |
| 20260505092030 | 48 | 11 | 0.0 | 1.0 | 0.00 | 0.00 | 0.00 | 99 | 1010.5 |
| 20260505091631 | 48 | 11 | 0.0 | 1.0 | 0.00 | 0.00 | 0.00 | 99 | 1010.4 |
| 20260505091530 | 48 | 11 | 0.0 | 1.0 | 0.00 | 0.00 | 0.00 | 99 | 1010.5 |
| 20260505091030 | 48 | 11 | 0.0 | 0.0 | 0.00 | 0.00 | 0.00 | 99 | 1010.5 |
| 20260505090732 | 48 | 11 | 1.0 | 2.0 | 0.00 | 0.00 | 0.00 | 99 | 1010.5 |
| 20260505090530 | 48 | 11 | 1.0 | 2.0 | 0.00 | 0.00 | 0.00 | 98 | 1010.4 |
| 20260505090030 | 48 | 11 | 1.0 | 2.0 | 0.00 | 0.00 | 0.00 | 98 | 1010.4 |
| 20260505085833 | 48 | 11 | 1.0 | 2.0 | 0.00 | 0.00 | 0.00 | 98 | 1010.4 |
| 20260505085530 | 48 | 11 | 1.0 | 2.0 | 0.00 | 0.00 | 0.00 | 98 | 1010.4 |
| 20260505085030 | 48 | 11 | 2.0 | 2.0 | 0.00 | 0.00 | 0.00 | 98 | 1010.4 |
| 20260505084931 | 48 | 11 | 2.0 | 2.0 | 0.00 | 0.00 | 0.00 | 98 | 1010.4 |
| 20260505084530 | 48 | 11 | 1.0 | 3.0 | 0.00 | 0.00 | 0.00 | 98 | 1010.4 |
| 20260505084030 | 48 | 11 | 1.0 | 2.0 | 0.00 | 0.00 | 0.00 | 98 | 1010.4 |
| 20260505083530 | 48 | 11 | 1.0 | 3.0 | 0.00 | 0.00 | 0.00 | 99 | 1010.4 |
| 20260505083131 | 48 | 11 | 1.0 | 3.0 | 0.00 | 0.00 | 0.00 | 99 | 1010.5 |
| 20260505083030 | 48 | 11 | 1.0 | 2.0 | 0.00 | 0.00 | 0.00 | 99 | 1010.5 |
| 20260505082530 | 48 | 11 | 1.0 | 2.0 | 0.00 | 0.00 | 0.00 | 99 | 1010.5 |
| 20260505082231 | 48 | 11 | 1.0 | 1.0 | 0.00 | 0.00 | 0.00 | 99 | 1010.5 |
| 20260505082030 | 48 | 11 | 1.0 | 3.0 | 0.00 | 0.00 | 0.00 | 99 | 1010.5 |
| 20260505081530 | 48 | 11 | 1.0 | 3.0 | 0.00 | 0.00 | 0.00 | 99 | 1010.4 |
| 20260505081331 | 48 | 11 | 1.0 | 2.0 | 0.00 | 0.00 | 0.00 | 99 | 1010.5 |
| 20260505081030 | 48 | 11 | 1.0 | 3.0 | 0.00 | 0.00 | 0.00 | 99 | 1010.5 |
| 20260505080530 | 48 | 11 | 2.0 | 3.0 | 0.00 | 0.00 | 0.00 | 99 | 1010.4 |
| 20260505080431 | 48 | 11 | 1.0 | 3.0 | 0.00 | 0.00 | 0.00 | 99 | 1010.5 |
| 20260505080030 | 48 | 11 | 1.0 | 3.0 | 0.00 | 0.00 | 0.00 | 99 | 1010.4 |
| 20260505075530 | 48 | 11 | 1.0 | 1.0 | 0.00 | 0.00 | 0.00 | 99 | 1010.4 |
| 20260505075030 | 48 | 11 | 1.0 | 2.0 | 0.00 | 0.00 | 0.00 | 99 | 1010.5 |
| 20260505074631 | 48 | 11 | 0.0 | 3.0 | 0.00 | 0.00 | 0.00 | 98 | 1010.6 |
| 20260505074530 | 48 | 11 | 0.0 | 3.0 | 0.00 | 0.00 | 0.00 | 98 | 1010.5 |
| 20260505074030 | 48 | 11 | 0.0 | 0.0 | 0.00 | 0.00 | 0.00 | 98 | 1010.6 |
| 20260505073731 | 48 | 11 | 0.0 | 0.0 | 0.00 | 0.00 | 0.00 | 98 | 1010.5 |
| 20260505073530 | 48 | 11 | 1.0 | 2.0 | 0.00 | 0.00 | 0.00 | 98 | 1010.5 |
| 20260505073030 | 49 | 11 | 1.0 | 2.0 | 0.00 | 0.00 | 0.00 | 98 | 1010.5 |
| 20260505072530 | 49 | 11 | 1.0 | 3.0 | 0.00 | 0.00 | 0.00 | 98 | 1010.5 |
| 20260505072030 | 49 | 11 | 0.0 | 2.0 | 0.00 | 0.00 | 0.00 | 98 | 1010.4 |
| 20260505071931 | 49 | 11 | 0.0 | 2.0 | 0.00 | 0.00 | 0.00 | 98 | 1010.4 |
| 20260505071530 | 49 | 11 | 1.0 | 2.0 | 0.00 | 0.00 | 0.00 | 99 | 1010.3 |
| 20260505071030 | 49 | 11 | 2.0 | 3.0 | 0.00 | 0.00 | 0.00 | 99 | 1010.4 |
| 20260505070530 | 49 | 11 | 1.0 | 3.0 | 0.00 | 0.00 | 0.00 | 99 | 1010.4 |
| 20260505070131 | 49 | 11 | 1.0 | 3.0 | 0.00 | 0.00 | 0.00 | 99 | 1010.3 |
| 20260505070030 | 49 | 11 | 0.0 | 3.0 | 0.00 | 0.00 | 0.00 | 100 | 1010.3 |
| 20260505065530 | 49 | 11 | 1.0 | 1.0 | 0.00 | 0.00 | 0.00 | 100 | 1010.3 |
| 20260505065231 | 49 | 11 | 1.0 | 3.0 | 0.00 | 0.00 | 0.00 | 100 | 1010.3 |
| 20260505065030 | 49 | 11 | 1.0 | 3.0 | 0.00 | 0.00 | 0.00 | 100 | 1010.3 |
| 20260505064530 | 49 | 11 | 1.0 | 3.0 | 0.00 | 0.00 | 0.00 | 100 | 1010.2 |
| 20260505064331 | 49 | 11 | 1.0 | 3.0 | 0.00 | 0.00 | 0.00 | 100 | 1010.2 |
| 20260505064030 | 49 | 13 | 1.0 | 3.0 | 0.00 | 0.00 | 0.00 | 100 | 1010.3 |
| 20260505063530 | 49 | 226 | 1.0 | 2.0 | 0.00 | 0.00 | 0.00 | 100 | 1010.2 |
| 20260505063431 | 49 | 226 | 1.0 | 2.0 | 0.00 | 0.00 | 0.00 | 100 | 1010.1 |
| 20260505063030 | 48 | 226 | 2.0 | 2.0 | 0.00 | 0.00 | 0.00 | 100 | 1010.2 |
| 20260505062530 | 48 | 226 | 3.0 | 3.0 | 0.00 | 0.00 | 0.00 | 100 | 1010.2 |
| 20260505062030 | 48 | 226 | 3.0 | 5.0 | 0.00 | 0.00 | 0.00 | 100 | 1010.1 |
| 20260505061631 | 48 | 226 | 3.0 | 5.0 | 0.00 | 0.00 | 0.00 | 100 | 1010.2 |
| 20260505061530 | 48 | 226 | 3.0 | 5.0 | 0.00 | 0.00 | 0.00 | 100 | 1010.2 |
| 20260505061030 | 48 | 205 | 4.0 | 5.0 | 0.00 | 0.00 | 0.00 | 100 | 1010.1 |
| 20260505060731 | 48 | 205 | 4.0 | 6.0 | 0.00 | 0.00 | 0.00 | 100 | 1010.1 |
| 20260505060530 | 48 | 203 | 5.0 | 7.0 | 0.00 | 0.00 | 0.00 | 100 | 1010.1 |
| 20260505060030 | 48 | 193 | 6.0 | 6.0 | 0.00 | 0.00 | 0.00 | 100 | 1010.1 |
| 20260505055831 | 48 | 209 | 6.0 | 9.0 | 0.00 | 0.00 | 0.00 | 100 | 1010.1 |
| 20260505055530 | 48 | 215 | 7.0 | 9.0 | 0.00 | 0.00 | 0.00 | 100 | 1010.1 |
| 20260505055030 | 48 | 222 | 7.0 | 11.0 | 0.00 | 0.00 | 0.00 | 99 | 1010.1 |